STARLINK-35146, 65421

Orbit data source: Space-Track

STARLINK-35146, 65421 is a payload satellite owned by SpaceX/Seattle (US) in LEO that was launched on Sun, 31 Aug 2025 UTC via an FALCON 9 launch vehicle from the Air Force Eastern Test Range (AFETR). Payload-class satellites include a variety of spacecraft equipped with specific instruments for various scientific and technological missions. These include communications satellites like Starlink; space stations such as the ISS; scientific satellites like the Hubble; Earth observation satellites from companies like Planet Labs, Umbra, and HawkEye 360; GPS; miniature CubeSats for education and research; and military/defense satellites.

Loading next visibility...
Identifier
65421, 2025-192T
Orbit
LEO
Country
Flag of USUS
Related business
Manufacturer
SpaceX/Seattle
Mission
Operational Commercial Communications
Bus & Motor
STARLINK V2MO, Unknown motor
Mass
575 kg wet, ~530 kg dry
Launch date (UTC)
2025-08-31 (10 months ago)
Launch vehicle
FALCON 9
Launch site
Air Force Eastern Test Range (AFETR)
Object type
Payload
Rocket body
Debris
Shape & HBR
Box + 2 Pan, 17.7 m
Radar Cross Section
36.964 m², Large (>1 m²)

Expand to show TLE details & history
Last TLE update: 1 day ago

TLE from 1 day ago
0 STARLINK-35146
1 65421U 25192T   26170.59293764  .00010494  00000-0  34927-3 0  9994
2 65421  53.1588 118.4805 0001213  95.5664 264.5476 15.31717481 44986
Epoch: 2026-06-19T14:13Z
TLE epoch observation values (Epoch: 2026-06-19T14:13:49.812Z)
Latitude
0.00002°
Longitude
-2.79673°
Altitude
471.667 km
Speed
7.631 km/s
True Right ascension
07h 53m 55s
True Declination
0° 00' 00"
Sunlit
Object was in daylight at epoch
Visualization orbit readout
Latitude
Unknown
Longitude
Unknown
Altitude
Unknown
Speed
Unknown
Apparent Right ascension
Unknown
Apparent Declination
Unknown
Sunlit
N/A
Visualization observer readout
Local Sidereal Time
07:18:28
Azimuth
Unknown
Elevation
Unknown
Doppler factor
Unknown
Orbital elements
Apogee altitude
471.775 km
Perigee altitude
470.114 km
Semi-major axis
6,849.082 km
Eccentricity
0.00012
Inclination
53.1588°
RAAN
118.4805°
Arg. of periapsis
95.5664°
True anomaly
264.53376°
Mean anomaly
264.5476°
Eccentric anomaly
264.54068°
Mean motion
3.82908 °/min
Orbital period
94.02 mins
BSTAR
0.00034927
Loading maneuver chart data...
Computing Atmospheric mass density...
Loading historical data...
Loading historical data...
Loading historical data...
Loading historical data...
Loading historical data...
Loading historical data...
Loading historical data...

Documentation

Showing up to 5 results
|